Regional Weather Roundup
Issued by NWS

Home | Current Version | Previous Version | Graphics & Text | Print | Product List | Glossary On
Versions: 1 2 3 4 5 6 7 8 9 10 11 12 13 14 15 16 17 18 19 20 21 22 23 24 25 26 27 28 29 30 31 32 33 34 35 36 37 38 39 40 41 42 43 44 45 46 47 48 49 50
000
ASUS45 KBOU 102210
RWRCO

WEATHER ROUNDUP FOR COLORADO
NATIONAL WEATHER SERVICE DENVER/BOULDER CO
400 PM MDT THU JUL 10 2014

NOTE: "FAIR" INDICATES FEW OR NO CLOUDS BELOW 12000 FEET WITH NO
SIGNIFICANT WEATHER AND/OR OBSTRUCTIONS TO VISIBILITY.

COZ001>005-013-030-031-102300-
...NORTHWEST COLORADO...

CITY           SKY/WX    TMP DP  RH WIND       PRES   REMARKS
CRAIG          MOSUNNY   80  47  31 SW15      30.08F
HAYDEN         MOSUNNY   84  45  24 SW15G24   30.11F
MEEKER         PTSUNNY   73  51  46 W7        30.13S
MOUNT WERNER   NOT AVBL
STEAMBOAT SPGS MOSUNNY   85  48  28 S7        30.13F
WALDEN         PTSUNNY   77  41  27 W14G20    30.23S
$$

COZ006>008-011-102300-
...WEST CENTRAL VALLEYS...

CITY           SKY/WX    TMP DP  RH WIND       PRES   REMARKS
GRAND JUNCTION MOSUNNY   90  47  22 VRB3      29.97F
MONTROSE       MOSUNNY   90  47  22 N6        30.06S
EAGLE          MOSUNNY   86  43  22 W16G25    30.10F
RIFLE          MOSUNNY   87  47  24 N3        30.02F
DELTA          MOSUNNY   95  46  18 SW8G16    30.00F THUNDER
NUCLA          PTSUNNY   88  45  22 NW6       30.11S THUNDER
$$

COZ017>023-064>068-102300-
...SOUTHWEST COLORADO...

CITY           SKY/WX    TMP DP  RH WIND       PRES   REMARKS
DURANGO        MOSUNNY   82  46  28 W9        30.14F
CORTEZ         SUNNY     87  48  25 SW6       30.08F
PAGOSA SPRINGS CLOUDY    69  52  54 NE6       30.25R
TELLURIDE      PTSUNNY   64  48  55 W5        30.35F
WOLF CREEK PAS NOT AVBL
$$

COZ009-010-012-014-032>034-037-058>063-102300-
...CENTRAL COLORADO...

CITY           SKY/WX    TMP DP  RH WIND       PRES   REMARKS
ASPEN          PTSUNNY   77  48  35 VRB6      30.20S
BUENA VISTA    PTSUNNY   82  31  16 S7G16     30.21F
COPPER MTN     CLOUDY    54  37  54 SE16      30.59R
BERTHOUD PASS  CLOUDY    45  32  61 SE18      30.64S
COTTONWOOD PAS PTSUNNY   72  36  26 CALM      30.39F THUNDER
GUNNISON       MOSUNNY   79  43  27 N10       30.22S
KREMMLING      MOSUNNY   82  34  17 N6        30.16S
LEADVILLE      PTSUNNY   66  43  43 N14G20    30.39F
MONARCH PASS   CLOUDY    61  36  39 S18G25    30.67S
SALIDA         CLOUDY   N/A N/A N/A W8        30.25R
SUNLIGHT       MOSUNNY   72  45  37 CALM      30.48F
WILKERSON PASS CLOUDY    61  37  41 S5        30.55S
$$

COZ069>075-102300-
...SAN LUIS VALLEY/SANGRE DE CRISTO MOUNTAINS...

CITY           SKY/WX    TMP DP  RH WIND       PRES   REMARKS
ALAMOSA        SUNNY     83  42  23 SW10      30.18F
LA VETA PASS   CLOUDY    70  36  28 E8G18     30.42F
SAGUACHE       NOT AVBL
$$

COZ035-036-038>040-102300-
...NORTHERN COLORADO FRONT RANGE...

CITY           SKY/WX    TMP DP  RH WIND       PRES   REMARKS
DENVER INTL AP MOSUNNY   96  43  16 SE6       29.99F
DMNS CITY PARK   N/A     92  38  15 W3G9      29.98F
AURORA         PTSUNNY   92  46  20 E8        30.01F
FRONT RANGE AP NOT AVBL
ERIE MUNI ARPT PTSUNNY   90  38  16 SW3       29.98S
BOULDER MUN AP PTSUNNY   86  46  25 W21       30.00R
CENTENNIAL     PTSUNNY   90  38  16 E9G18     30.02F
BROOMFIELD     CLOUDY    90  39  17 SE5       30.03F
FORT COLLINS   MOSUNNY   93  46  20 SE13G20   29.93F
LONGMONT       MOSUNNY   97  41  14 SW10      29.99S
$$

COZ041-046-047-076>085-087-088-102300-
...PIKES PEAK/PALMER DIVIDE AND SOUTHERN FOOTHILLS...

CITY           SKY/WX    TMP DP  RH WIND       PRES   REMARKS
COLO. SPRINGS  MOSUNNY   90  38  16 S15       30.08S
A. F. ACADEMY  PTSUNNY   90  37  15 S14G23    30.09F
ELLICOTT       NOT AVBL
FALCON         MOSUNNY   87  34  14 SE10G21   30.14F
FORT CARSON    MOSUNNY   89  40  17 S3        30.04F
LIMON          SUNNY     92  41  17 SE14G22   30.01F
MONUMENT HILL  MOSUNNY   86  32  14 SE12G22   30.13S
TRINIDAD       MOSUNNY   92  39  15 SE15G21   30.01F
$$

COZ042>045-048>051-090-091-102300-
...NORTHEAST COLORADO...

CITY           SKY/WX    TMP DP  RH WIND       PRES   REMARKS
GREELEY ARPT   NOT AVBL
AKRON          SUNNY     92  50  23 S14G24    29.96F
BURLINGTON     SUNNY     91  60  35 SE10      29.94F
WRAY             N/A     97  54  22 S10G20    29.90F
STERLING       SUNNY     99  54  22 S9        29.88F
HOLYOKE        SUNNY     95  59  30 S14G21    29.90F
FORT MORGAN    SUNNY     96  43  16 SE7       29.94F
$$

COZ086-089-092>099-102300-
...SOUTHEAST COLORADO...

CITY           SKY/WX    TMP DP  RH WIND       PRES   REMARKS
PUEBLO         MOSUNNY   96  33  11 S13       29.93F
LA JUNTA       SUNNY    100  34  10 S10       29.90F
LAMAR          SUNNY    101  39  12 E8G17     29.85F
SPRINGFIELD      N/A     95  49  20 SW16G26   29.95F
$$



USA.gov is the U.S. government's official web portal to all federal, state and local government web resources and services.